Regional Weather Roundup
Issued by NWS Charleston, SC

Current Version | Previous Version | Graphics & Text | Print | Product List | Glossary On
Versions: 1 2 3 4 5 6 7 8 9 10 11 12 13 14 15 16 17 18 19 20 21 22 23 24 25 26 27 28 29 30 31 32 33 34 35 36 37 38 39 40 41 42 43 44 45 46 47 48 49 50
000
ASUS42 KCHS 242027
RWRCHS

REGIONAL WEATHER ROUNDUP
NATIONAL WEATHER SERVICE CHARLESTON SC
400 PM EDT MON APR 24 2017

NOTE: "FAIR" INDICATES FEW OR NO CLOUDS BELOW 12,000 FEET WITH NO
SIGNIFICANT WEATHER AND/OR OBSTRUCTIONS TO VISIBILITY.

NOT ALL STATIONS ARE QUALITY CONTROLLED. USE DATA WITH CAUTION...
ESPECIALLY DEWPOINT OBSERVATIONS.

SCZ027-030-031-034>040-042>050-242100-
...SOUTHEAST SOUTH CAROLINA...

CITY           SKY/WX    TMP DP  RH WIND       PRES   REMARKS
N CHARLESTON   PTSUNNY   73  66  78 NE6       29.60F
WATERFRONT PRK   N/A     73  68  84 S12       29.58F
JOHNS ISLAND   MOCLDY    75  64  69 S9G16     29.60F
PINOPOLIS        N/A     66  64  94 E7        29.54
MONCKS CORNER  LGT RAIN  64  63  94 NE6       29.62S
SUMMERVILLE    CLOUDY    70  66  88 NE6       29.61F
BEAUFORT MCAS  MOSUNNY   79  51  37 W15G24    29.61F
BEAUFORT ARPT  FAIR      77  50  38 W15G24    29.61F
HILTON HEAD IS MOSUNNY   77  61  57 W12G22    29.63
WALTERBORO     MOCLDY    73  59  60 NW6       29.60F
ALLENDALE      FAIR      73  59  60 VRB7G13   29.61F

...SOUTHERN MIDLANDS AND PEE DEE...

CITY           SKY/WX    TMP DP  RH WIND       PRES   REMARKS
GEORGETOWN     RAIN      68  68 100 N5        29.64F
KINGSTREE      RAIN      61  59  94 N7        29.65F
ORANGEBURG     CLOUDY    67  63  87 N8        29.63F
BARNWELL       DRIZZLE   66  63  88 N15       29.64F
AIKEN          CLOUDY    55  54  94 N10       29.71F
MANNING        CLOUDY    63  59  88 NE10      29.64S
COLUMBIA       LGT RAIN  60  57  89 N7        29.67F VSB 1
SUMTER         DRIZZLE   62  60  94 NE14      29.63F
FLORENCE       LGT RAIN  62  61  96 N10       29.69F
MYRTLE BEACH   CLOUDY    68  64  88 N9        29.65S
N MYRTLE BEACH CLOUDY    67  66  97 N7        29.64F

$$

GAZ063-065-086>088-099>101-113>116-118-119-134>141-150-242100-
...SOUTHEAST GEORGIA...

CITY           SKY/WX    TMP DP  RH WIND       PRES   REMARKS
SAVANNAH ARPT  PTSUNNY   77  49  37 W17       29.64F
HUNTER AAF     MOSUNNY   77  56  49 W16G22    29.61F
FORT STEWART   CLOUDY    71  52  49 W12       29.63F
STATESBORO     PTSUNNY   72  56  55 W10       29.65S
SYLVANIA       CLOUDY   N/A N/A N/A W5        29.65F
CLAXTON        MOCLDY    72  55  55 SW10      29.65F

...CSRA...CENTRAL AND FAR SOUTHEAST GEORGIA...

CITY           SKY/WX    TMP DP  RH WIND       PRES   REMARKS
THOMSON        PTSUNNY   63  56  77 SE6       29.74F
AUGUSTA-BUSH   CLOUDY    65  56  72 N9        29.67F
AUGUSTA-DANIEL CLOUDY    63  53  70 N10       29.69F
SWAINSBORO     CLOUDY    66  55  68 NW12      29.67F
VIDALIA        CLOUDY    70  55  60 W12       29.66F
EASTMAN        MOCLDY    67  49  52 CALM      29.71F
HAZLEHURST     MOCLDY    71  54  55 W6G17     29.66F
ALMA           CLOUDY    67  53  61 W8        29.69F
WAYCROSS       CLOUDY    74  54  48 W14       29.68F
JESUP          CLOUDY    70  50  49 W9G16     29.67F
BAXLEY         FAIR      72  55  56 SW7       29.67F
BRUNSWICK      CLOUDY    73  55  53 W17G24    29.66S
SAINT SIMONS   MOSUNNY   76  52  43 W14G22    29.64F

$$

SCZ027-028-034-036>038-045-046-048>050-GAZ119-141-242100-
...LAKE AND SUPPLEMENTAL COASTAL OBSERVATIONS...

STATION/POSITION TIME  TEMP    WIND        PRES    WAVE   SWELL
                       AIR SEA DIR/SP/G            HT/PER HT/PER/DIR
                 (UTC) (F)     (DEG/KT/KT) (MB)    (FT/S) (FT/S/D)
WINYAH BAY       1945   69      80/  4     1003.0F
LAKE MURRAY      2020   58     360/  5/  9 1004.7
ACE BASIN NERRS  1930   75     240/  5     1003.0S
FORT PULASKI     2000   73 75  290/ 13/ 15 1003.3
SAPELO ISLAND    1930   74     260/ 13     1004.0F

$$

ANZ835-935-AMZ111-154-330-350-352-354-370-450-454-472-242100-
...C-MAN AND BUOY OBSERVATIONS...

STATION/POSITION TIME  TEMP    WIND        PRES    WAVE   SWELL
                       AIR SEA DIR/SP/G            HT/PER HT/PER/DIR
                 (UTC) (F)     (DEG/KT/KT) (MB)    (FT/S) (FT/S/D)
BUOY 41004       2010   69 74  220/ 12/ 16 1003.0
BUOY 41008       1950   72 72  240/ 12/ 14 1003.3F   4/ 7   3/100/ 7
FOLLY BEACH CMAN 2000   72     190/ 15/ 19 1003.3F
CAPERS NEARSHORE 2008   71 72  150/ 12/ 17 1002.5F
FRIPP NEARSHORE  2008   73 72  260/ 12/ 17 1002.5F


STATION/POSITION TIME  TEMP    WIND        PRES    WAVE   SWELL
                       AIR SEA DIR/SP/G            HT/PER HT/PER/DIR
                 (UTC) (F)     (DEG/KT/KT) (MB)    (FT/S) (FT/S/D)
5E ST. MARYS GA  2000      73                N/A     3/ 8   2/100/11
FRYING PAN BUOY  2010   70 75  220/ 17/ 23 1002.9
BUOY 41025       1950   76 79  130/ 29/ 37 1007.2F   9/ 8   3/ 60/11
CAPE LOOKOUT NC  2000   70     110/ 26/ 29 1005.6F
BUOY 41002       1950   68 75   40/ 29/ 35 1003.2F   9/ 8   8/150/ 8
BUOY 41010       2010   77 77  230/ 12/ 16 1004.5
ST AUGUSTINE FL  2000   76 75  280/ 14/ 17 1005.2F


$$




USA.gov is the U.S. government's official web portal to all federal, state and local government web resources and services.